Weather History for Rogers, AR

Change the Weather History Date:

Thursday, January 17, 2013

  Actual Average Record
Temperature  
Mean Temperature 36 °F -  
Max Temperature 45 °F 43 °F 64 °F (2012)
Min Temperature 28 °F 26 °F 1 °F (1997)
Degree Days  
Heating Degree Days 28    
Moisture  
Dew Point 25 °F    
Average Humidity 68    
Maximum Humidity 82    
Minimum Humidity 49    
Precipitation  
Precipitation 0.00 in - - ()
Sea Level Pressure  
Sea Level Pressure 30.38 in    
Wind  
Wind Speed 5 mph (NNW)    
Max Wind Speed 12 mph    
Max Gust Speed -    
Visibility 10 miles    
Events      
Averages and records for this station are not official NWS values.
T = Trace of Precipitation, MM = Missing Value Source: NWS Daily Summary

Daily Weather History Graph

Daily Weather History Graph

Search for Another Location

Airport:

Trip Planner

Search our weather history database for the weather conditions in past years. The results will help you decide how hot, cold, wet, or windy it might be!

Date:

Astronomy

Jan. 17, 2013 Rise Set
Actual Time 7:26 AM CST 5:27 PM CST
Civil Twilight 6:58 AM CST 5:55 PM CST
Nautical Twilight 6:26 AM CST 6:26 PM CST
Astronomical Twilight 5:56 AM CST 6:57 PM CST
Moon 10:46 AM CST (1/17) No Moon Set
Length of Visible Light 10h 56m
Length of Day
10h 00m
Waxing Crescent, 38% of the Moon is Illuminated
Jan 17
Waxing Crescent
Jan 18
First Quarter
Jan 26
Full
Feb 3
Last Quarter
Feb 10
New

Hourly Weather History & Observations

Time (CST) Temp. Windchill Dew Point Humidity Pressure Visibility Wind Dir Wind Speed Gust Speed Precip Events Conditions
12:57 AM 30.0 °F 23.2 °F 19.0 °F 64% 30.23 in 10.0 mi WSW 6.9 mph - N/A   Clear
1:57 AM 30.0 °F 26.5 °F 19.0 °F 64% 30.25 in 10.0 mi West 3.5 mph - N/A   Clear
2:57 AM 28.9 °F - 18.0 °F 64% 30.24 in 10.0 mi Calm Calm - N/A   Clear
3:57 AM 28.0 °F 22.8 °F 19.0 °F 69% 30.26 in 10.0 mi WNW 4.6 mph - N/A   Clear
4:57 AM 28.0 °F 20.8 °F 19.0 °F 69% 30.28 in 10.0 mi WNW 6.9 mph - N/A   Clear
5:57 AM 28.0 °F 21.7 °F 19.9 °F 72% 30.30 in 10.0 mi NW 5.8 mph - N/A   Clear
6:57 AM 28.0 °F - 19.9 °F 72% 30.34 in 10.0 mi Calm Calm - N/A   Clear
8:57 AM 32.0 °F 26.4 °F 27.0 °F 82% 30.40 in 10.0 mi North 5.8 mph - N/A   Clear
9:57 AM 35.1 °F 30.1 °F 30.0 °F 82% 30.43 in 10.0 mi North 5.8 mph - N/A   Scattered Clouds
10:03 AM 35.6 °F 29.2 °F 30.2 °F 81% 30.39 in 10.0 mi NNE 8.1 mph - N/A   Mostly Cloudy
10:57 AM 37.0 °F 29.3 °F 30.0 °F 76% 30.44 in 10.0 mi North 11.5 mph - N/A   Overcast
11:57 AM 41.0 °F 36.4 °F 30.9 °F 67% 30.43 in 10.0 mi North 6.9 mph - N/A   Scattered Clouds
1:57 PM 44.1 °F 38.6 °F 28.9 °F 55% 30.39 in 10.0 mi NNW 10.4 mph - N/A   Unknown
2:57 PM 45.0 °F 39.3 °F 27.0 °F 49% 30.40 in 10.0 mi North 11.5 mph - N/A   Clear
3:57 PM 45.0 °F 41.2 °F 27.0 °F 49% 30.41 in 10.0 mi North 6.9 mph - N/A   Clear
5:57 PM 41.0 °F 38.0 °F 26.1 °F 55% 30.44 in 10.0 mi North 4.6 mph - N/A   Clear
6:57 PM 39.0 °F 36.8 °F 26.1 °F 60% 30.46 in 10.0 mi North 3.5 mph - N/A   Clear
7:57 PM 37.0 °F - 26.1 °F 65% 30.46 in 10.0 mi Calm Calm - N/A   Clear
8:57 PM 34.0 °F - 25.0 °F 70% 30.47 in 10.0 mi Calm Calm - N/A   Clear
9:57 PM 32.0 °F - 25.0 °F 75% 30.47 in 10.0 mi Calm Calm - N/A   Clear
10:57 PM 30.9 °F - 25.0 °F 79% 30.48 in 10.0 mi Calm Calm - N/A   Clear
11:57 PM 30.0 °F - 25.0 °F 82% 30.48 in 10.0 mi Calm Calm - N/A   Clear